Location: ???????????
(54.6970°N, 39.1477°E)
Time: 10:33:21
(UTC+00:00)

Cosmos 1300 - Pass Details

Date: 19 May 2025
Orbit: 394 x 398 km, 82.5° (Epoch: 13 June)

Event Time Altitude Azimuth Distance (km) Brightness Sun altitude
Rises 20:28:28 0° 356° (N) 2,327 7.9 -14.5°
Reaches altitude 10° 20:30:42 10° 9° (N) 1,460 6.1 -14.6°
Maximum altitude 20:33:28 27° 70° (ENE) 808 3.8 -14.7°
Enters shadow 20:34:59 18° 114° (ESE) 1,045 3.9 -14.7°
